#timestamp,LO_Frequency,Hit,StdDev 
1558663215.3,286046996.5,P
1558663235.1,286046992.3,P
1558663255.9,286046988.5,P
1558663275.7,286046987.6,Y
1558663295.5,286046990.5,P
1558663315.4,286046991.0,P
1558663335.2,286047001.1,N
1558663355.1,286047001.6,N
1558663356.0,286047001.6,N
1558663375.8,286046999.0,N
1558663395.6,286046995.1,N
1558663415.5,286046994.8,N
1558663435.3,286046996.0,N
1558663455.1,286046994.2,N
1558663475.9,286046987.5,Y
1558663495.7,286046994.4,P
1558663515.6,286046995.8,P
1558663535.4,286046996.2,P
1558663555.2,286046991.3,Y
1558663575.1,286046990.4,P
1558663576.0,286046990.4,P
1558663595.8,286046987.6,P
1558663615.7,286046986.7,Y
1558663635.5,286046993.4,P
1558663655.3,286047003.4,N
1558663675.2,286046996.7,N
1558663695.0,286047000.5,N
1558663695.9,286047000.5,N
1558663715.7,286047005.7,N
1558663735.6,286047000.1,N
1558663755.4,286047001.0,N
1558663775.3,286046998.4,N
1558663795.1,286047003.4,N
1558663796.0,286047003.4,N
1558663815.8,286047002.6,N
1558663835.7,286046996.8,N
1558663855.5,286046998.8,N
1558663875.3,286046997.1,N
1558663895.2,286047000.8,N
1558663915.0,286047003.3,N
1558663915.9,286047003.3,N
1558663935.8,286047000.7,N
1558663955.6,286046996.0,N
1558663975.4,286046998.7,N
1558663995.3,286047001.8,N
1558664015.1,286047004.4,N
1558664035.8,286047006.4,N
1558664055.7,286047001.5,N
1558664075.5,286046999.0,N
1558664095.4,286047001.0,N
1558664115.2,286046998.1,N
1558664135.0,286046997.1,N
1558664135.9,286046997.1,N
1558664155.8,286046994.2,N
1558664175.6,286046991.5,N
1558664195.5,286046991.3,N
1558664215.3,286046993.9,N
1558664235.1,286046991.3,N
1558664255.9,286047000.0,N
1558664275.7,286047004.3,N
1558664295.5,286047006.2,N
1558664315.4,286047006.9,N
1558664335.2,286047007.5,N
1558664355.0,286047002.6,N
1558664356.0,286047002.6,N
1558664375.8,286046996.7,N
1558664395.6,286046995.8,N
1558664415.5,286046997.2,N
1558664435.3,286047001.2,N
1558664455.1,286046997.0,N
1558664475.9,286046999.0,N
1558664495.7,286046993.4,N
1558664515.6,286046992.1,N
1558664535.4,286046999.3,N
1558664555.2,286046996.1,N
1558664575.1,286046994.5,N
1558664576.0,286046994.5,N
1558664595.8,286046996.7,N
1558664615.6,286046991.0,N
1558664635.5,286046987.9,N
1558664655.3,286046992.3,N
1558664675.2,286047000.4,N
1558664695.9,286046994.1,N
1558664715.7,286046995.1,N
1558664735.6,286046993.8,N
1558664755.4,286046995.2,N
1558664775.2,286046997.2,N
1558664795.1,286046998.5,N
1558664796.0,286046998.5,N
1558664815.8,286046998.8,N
1558664835.7,286046997.5,N
1558664855.5,286046994.3,N
1558664875.3,286046995.4,N
1558664895.2,286046999.5,N
1558664915.0,286047000.8,N
1558664915.9,286047000.8,N
1558664935.8,286047001.4,N
1558664955.6,286047002.8,N
1558664975.4,286046997.2,N
1558664995.3,286047000.8,N
1558665015.1,286046999.5,N
1558665035.8,286046990.2,N
1558665055.7,286046996.5,N
1558665075.5,286046999.6,N
1558665095.4,286046998.9,N
1558665115.2,286047001.2,N
1558665135.0,286046996.7,N
1558665135.9,286046996.7,N
1558665155.8,286046994.1,N
1558665175.6,286046995.6,N
1558665195.4,286046993.8,N
1558665215.3,286046997.2,N
1558665235.1,286046998.2,N
1558665255.9,286046999.6,N
1558665275.7,286046994.4,N
1558665295.5,286046996.1,N
1558665315.4,286047000.9,N
1558665335.2,286046998.0,N
1558665355.0,286046999.0,N
1558665355.9,286046999.0,N
1558665375.8,286046990.4,Y
1558665395.6,286046992.9,P
1558665415.5,286046989.3,P
1558665435.3,286046988.6,P
1558665455.1,286046995.7,N
1558665475.9,286046989.2,Y
1558665495.7,286047002.5,P
1558665515.6,286047001.3,N
1558665535.4,286047008.2,N
1558665555.2,286047008.1,N
1558665575.1,286047010.2,N
1558665576.0,286047010.2,N
1558665595.8,286047009.9,N
1558665615.7,286047009.8,N
1558665635.5,286047007.2,N
1558665655.3,286047010.3,N
1558665675.2,286047014.5,N
1558665695.0,286047006.5,N
1558665695.9,286047006.5,N
1558665715.7,286047012.4,N
1558665735.6,286047002.6,N
1558665755.4,286047009.8,N
1558665775.3,286047003.6,N
1558665795.1,286047002.2,N
1558665796.0,286047002.2,N
1558665815.8,286047000.2,N
1558665835.7,286046999.5,N
1558665855.5,286047002.5,N
1558665875.3,286047004.1,N
1558665895.2,286047003.8,N
1558665915.0,286047004.0,N
1558665915.9,286047004.0,N
1558665935.8,286046997.0,N
1558665955.6,286046998.4,N
1558665975.4,286046992.8,N
1558665995.3,286047001.0,N
1558666015.1,286047000.1,N
1558666035.8,286047002.2,N
1558666055.7,286046999.4,N
1558666075.5,286047008.7,N
1558666095.4,286047004.4,N
1558666115.2,286047002.0,N
1558666135.0,286047005.4,N
1558666135.9,286047005.4,N
1558666155.8,286047000.8,N
1558666175.6,286047010.5,N
1558666195.5,286047008.1,N
1558666215.3,286047007.6,N
1558666235.1,286047006.4,N
1558666255.9,286047006.5,N
1558666275.7,286047003.3,N
1558666295.5,286047007.3,N
1558666315.4,286047011.9,Y
1558666335.2,286047008.7,P
1558666355.1,286047016.9,P
1558666356.0,286047016.9,N
1558666375.8,286047012.0,N
1558666395.6,286047009.3,N
1558666415.5,286047009.5,N
1558666435.3,286047013.6,Y
1558666455.2,286047007.3,P
1558666475.9,286047005.9,P
1558666495.7,286047013.5,P
1558666515.6,286047013.4,Y
1558666535.4,286047003.1,P
1558666555.2,286047004.7,N
1558666575.1,286047008.4,P
1558666576.0,286047008.4,Y
1558666595.8,286047002.4,P
1558666615.7,286047005.2,N
1558666635.5,286046999.7,N
1558666655.3,286047000.7,N
1558666675.2,286046995.3,N
1558666695.0,286046997.2,N
1558666695.9,286046997.2,N
1558666715.8,286046994.8,N
1558666735.6,286046993.2,N
1558666755.4,286046987.5,N
1558666775.3,286046993.9,N
1558666795.1,286046988.6,N
